User: anonymous   Login
Location: Unspecified
(0.0000°N, 0.0000°E)
Time: 11:44:17
(UTC+00:00)
Language:

CZ-3 Stage 3 - Orbit

View from above orbital plane
View from above orbital plane
View from above satellite
View from above satellite

Ground track
Ground track

The orbit data is extracted from the following two-line orbital elements,

1 14900U 84035B   20216.55586976 -.00000040  00000-0  20297-3 0  9994
2 14900  31.1551  12.2278 7163493 251.6200  23.8904  2.33891688241509
Epoch (UTC): 03 August 2020 13:20:27
Eccentricity: 0.7163493
inclination: 31.1551°
perigee height: 422 km
apogee height: 34768 km
right ascension of ascending node: 12.2278°
argument of perigee: 251.6200°
revolutions per day: 2.33891688
mean anomaly at epoch: 23.8904°
orbit number at epoch: 24150

The dashed part of the orbit path shows where the satellite is in the earth's shadow,  

DLR